Content
SEND FEEDBACK

Daily
Averages
Monthly
Summary
United States of America

CRESTED BUTTE, COLORADO


Home > North America > United States > Colorado
Elevation: 9277 feet     Latitude: 38 52N     Longitude: 106 58W

WEATHER
 
SELECT A DAY
Number of Records: 453,330;   Date Range: 1/1/95 - 9/30/14
 
SHARE

PRINT THIS DATA

[ ← Previous Day ]
WEATHER ALMANAC - JANUARY 12, 2014
[ Next Day → ]
[ °C ]   °F
Weather ElementAverageHighLow
Temperature18.4 °F28.4 °F (9:55 am)8.6 °F (1:35 am)
Dewpoint8.6 °F21.2 °F (11:55 am)-4 °F (3:55 am)
Humidity67.6 %100 % (12:55 am)43 % (1:15 pm)
Barometer29.95 in30.17 in (11:55 pm)29.81 in (6:35 am)
Wind Speed7.2 mph26.5 mph (2:35 pm)
Wind Gust32.2 mph (2:35 pm)
Weather ElementAverage
Visibility9 mi
Wind DirectionSSE (163.9 °)

Weather ElementTotal
Precipitation---
Heating Degree Days46.5 (Base 65)
Averaged from 69 records on January 12, 2014
WEATHER CONDITIONS BREAKOUT
WIND DIRECTION BREAKOUT
WEATHER BY HOUR - JANUARY 12, 2014
[ °C ]   °F
Local TimeTemperatureDewpointHumidityBarometerVisibilityWind DirectionWind SpeedGust SpeedPrecipitationEventsConditions
12:35 AM10.4 °F6.8 °F85 %29.97 in10.0 miCalmPartly Cloudy
12:55 AM10.4 °F10.4 °F100 %29.96 in10.0 miCalmMostly Cloudy
1:15 AM10.4 °F1.4 °F67 %29.94 in10.0 miCalmPartly Cloudy
1:35 AM8.6 °F-0.4 °F67 %29.93 in10.0 miCalmClear
1:55 AM10.4 °F10.4 °F100 %29.93 in10.0 miCalmClear
2:15 AM10.4 °F6.8 °F85 %29.92 in10.0 miEast (80°)3.5 mphClear
2:35 AM10.4 °F-0.4 °F62 %29.92 in10.0 miCalmClear
2:55 AM10.4 °F3.2 °F73 %29.91 in10.0 miCalmClear
3:15 AM10.4 °F10.4 °F100 %29.90 in10.0 miCalmClear
3:35 AM10.4 °F8.6 °F92 %29.89 in10.0 miCalmClear
3:55 AM10.4 °F-4.0 °F52 %29.88 in10.0 miCalmClear
4:15 AM10.4 °F-0.4 °F62 %29.86 in10.0 miCalmClear
4:35 AM8.6 °F8.6 °F100 %29.86 in10.0 miCalmClear
4:55 AM10.4 °F8.6 °F92 %29.86 in10.0 miCalmClear
5:15 AM10.4 °F-0.4 °F62 %29.85 in10.0 miCalmPartly Cloudy
5:35 AM8.6 °F1.4 °F73 %29.84 in10.0 miCalmPartly Cloudy
5:55 AM8.6 °F6.8 °F92 %29.83 in10.0 miCalmClear
6:15 AM8.6 °F8.6 °F100 %29.82 in10.0 miCalmClear
6:35 AM10.4 °F3.2 °F73 %29.81 in10.0 miNorthClear
6:55 AM10.4 °F-0.4 °F62 %29.81 in10.0 miCalmClear
7:35 AM8.6 °F6.8 °F92 %29.81 in10.0 miCalmScattered Clouds
7:55 AM8.6 °F3.2 °F79 %29.81 in10.0 miCalmScattered Clouds
8:35 AM12.2 °F6.8 °F79 %29.81 in10.0 miCalmPartly Cloudy
8:55 AM10.4 °F6.8 °F85 %29.81 in10.0 miCalmClear
9:15 AM14.0 °F8.6 °F79 %29.81 in8.0 miCalmMostly Cloudy
9:35 AM21.2 °F14.0 °F74 %29.82 in2.5 miSSW (200°)6.9 mphMostly Cloudy
9:55 AM28.4 °F14.0 °F55 %29.86 in4.0 miWest (260°)16.1 mph25.3 mphPartly Cloudy
10:15 AM28.4 °F12.2 °F51 %29.87 in10.0 miWSW (250°)15.0 mph24.2 mphClear
10:35 AM28.4 °F12.2 °F51 %29.90 in1.5 miWSW (240°)15.0 mph23.0 mphMostly Cloudy
10:55 AM26.6 °F14.0 °F59 %29.90 in0.8 miSW (230°)15.0 mph23.0 mphOvercast
11:15 AM26.6 °F15.8 °F64 %29.89 in4.0 miSW (230°)13.8 mph18.4 mphMostly Cloudy
11:35 AM26.6 °F19.4 °F74 %29.89 in9.0 miWest (260°)8.1 mphMostly Cloudy
11:55 AM28.4 °F21.2 °F74 %29.88 in5.0 miWest (270°)15.0 mph26.5 mphMostly Cloudy
12:15 PM26.6 °F17.6 °F69 %29.88 in3.0 miWSW (250°)19.6 mph31.1 mphMostly Cloudy
12:35 PM24.8 °F12.2 °F59 %29.87 in6.0 miSW (230°)13.8 mph24.2 mphMostly Cloudy
12:55 PM28.4 °F12.2 °F51 %29.87 in8.0 miWSW (250°)23.0 mph27.6 mphPartly Cloudy
1:15 PM28.4 °F8.6 °F43 %29.88 in10.0 miWest (260°)16.1 mph26.5 mphPartly Cloudy
1:35 PM28.4 °F10.4 °F47 %29.88 in10.0 miWest (270°)17.3 mph27.6 mphClear
1:55 PM28.4 °F8.6 °F43 %29.89 in9.0 miWest (270°)17.3 mph31.1 mphClear
2:15 PM28.4 °F8.6 °F43 %29.90 in9.0 miWNW (300°)17.3 mph29.9 mphClear
2:35 PM24.8 °F10.4 °F54 %29.91 in9.0 miWSW (250°)26.5 mph32.2 mphClear
2:55 PM21.2 °F15.8 °F80 %29.94 in0.5 miWest (270°)11.5 mphOvercast
3:15 PM24.8 °F12.2 °F59 %29.95 in10.0 miSouth (190°)3.5 mphScattered Clouds
3:35 PM23.0 °F8.6 °F54 %29.97 in10.0 miWest (280°)8.1 mphMostly Cloudy
3:55 PM23.0 °F8.6 °F54 %29.98 in10.0 miWest (270°)6.9 mphMostly Cloudy
4:15 PM23.0 °F12.2 °F63 %29.99 in10.0 miWest (260°)6.9 mphMostly Cloudy
4:35 PM23.0 °F15.8 °F74 %30.00 in10.0 miNorth (350°)6.9 mphMostly Cloudy
4:55 PM21.2 °F15.8 °F80 %30.01 in10.0 miNW (320°)3.5 mphOvercast
5:15 PM21.2 °F15.8 °F80 %30.01 in10.0 miCalmOvercast
5:35 PM21.2 °F12.2 °F68 %30.01 in10.0 miWest (260°)10.4 mphMostly Cloudy
5:55 PM19.4 °F10.4 °F68 %30.03 in10.0 miWest (260°)9.2 mphMostly Cloudy
6:15 PM21.2 °F12.2 °F68 %30.03 in10.0 miWest (280°)11.5 mphScattered Clouds
6:35 PM19.4 °F8.6 °F63 %30.02 in10.0 miWest (270°)6.9 mphClear
6:55 PM19.4 °F5.0 °F54 %30.05 in10.0 miWNW (290°)5.8 mphClear
7:15 PM21.2 °F5.0 °F50 %30.05 in10.0 miWest (280°)12.7 mphClear
7:35 PM19.4 °F8.6 °F63 %30.06 in10.0 miWest (260°)8.1 mphClear
7:55 PM19.4 °F6.8 °F58 %30.07 in10.0 miWest (280°)5.8 mphClear
8:15 PM21.2 °F8.6 °F58 %30.08 in10.0 miWest (260°)13.8 mphScattered Clouds
8:35 PM21.2 °F6.8 °F54 %30.09 in10.0 miWest (280°)8.1 mphMostly Cloudy
8:55 PM21.2 °F6.8 °F54 %30.10 in10.0 miWest (260°)4.6 mphMostly Cloudy
9:15 PM21.2 °F10.4 °F63 %30.11 in10.0 miWest (260°)5.8 mphMostly Cloudy
9:35 PM19.4 °F6.8 °F58 %30.12 in10.0 miWest (260°)8.1 mphMostly Cloudy
9:55 PM19.4 °F5.0 °F54 %30.12 in10.0 miWest (260°)8.1 mphScattered Clouds
10:15 PM19.4 °F8.6 °F63 %30.13 in10.0 miWSW (250°)10.4 mphScattered Clouds
10:35 PM19.4 °F8.6 °F63 %30.13 in10.0 miWest (260°)11.5 mphPartly Cloudy
10:55 PM19.4 °F5.0 °F54 %30.14 in10.0 miWSW (250°)11.5 mphMostly Cloudy
11:15 PM19.4 °F5.0 °F54 %30.15 in10.0 miWSW (250°)9.2 mphOvercast
11:35 PM19.4 °F8.6 °F63 %30.16 in10.0 miWSW (250°)11.5 mphOvercast
11:55 PM19.4 °F8.6 °F63 %30.17 in10.0 miWSW (250°)12.7 mph17.3 mphOvercast
Hourly data recorded from KGUC, located miles away from Crested Butte, Colorado







STORIES FROM OUR PARTNERS